Lapse_Rate
5.9 6.1 6.2 6.6 7.0 7.2 6.4 6.9 8.7 8.3 7.9 7.8 7.4 7.3 6.8 5.3 5.5 5.8 2.5 4.1 6.8 5.2 5.3 4.4 4.7 6.4 6.2 6.9 6.5 7.0 6.8 6.9 6.6 6.5 6.5 6.5 6.5 6.5 6.5 6.5 6.5 6.5 6.5 6.5 6.5 6.5 6.5 6.9 6.7 6.5 6.7 7.2 7.3 7.3
5.8 6.1 6.0 6.4 7.1 7.0 6.7 6.7 8.4 8.2 8.0 7.6 7.3 6.8 6.8 5.4 6.6 5.9 4.5 4.6 5.2 4.6 5.2 4.9 4.4 3.8 3.5 3.5 5.4 5.9 6.9 6.9 7.0 6.5 6.5 6.5 6.5 6.5 6.5 6.5 6.5 6.5 6.5 6.5 6.5 6.5 6.7 7.3 7.0 7.3 7.6 7.3 7.4 7.5
6.0 5.6 6.3 6.6 6.8 6.7 7.2 6.7 8.2 8.1 8.1 7.4 7.4 6.8 7.0 5.7 6.4 5.6 4.9 4.7 4.9 4.3 6.3 6.0 6.0 5.2 4.1 3.1 2.8 7.0 5.8 5.7 6.2 4.7 6.8 6.5 6.5 6.5 6.5 6.5 6.5 6.5 6.9 6.5 6.5 6.5 6.7 7.2 7.5 7.8 7.8 7.6 7.8 7.8
5.8 5.7 6.3 6.5 6.3 6.3 6.8 8.4 7.7 8.1 8.2 7.5 7.3 7.1 7.1 6.1 5.8 5.6 5.1 3.8 4.8 5.4 6.7 6.6 5.3 5.0 3.9 3.1 3.0 3.7 4.1 3.6 4.2 5.3 6.9 6.5 6.5 6.9 6.5 6.5 6.5 6.7 6.7 6.5 6.5 6.6 7.0 7.3 7.5 7.7 7.4 7.2 7.1 7.3
5.0 5.8 6.0 6.2 5.8 6.1 6.8 8.2 7.6 8.0 8.1 7.9 7.3 7.3 7.3 6.1 5.4 4.9 4.4 4.1 4.5 6.1 6.7 7.2 5.4 5.2 4.1 3.3 3.5 3.7 4.4 5.2 5.8 6.7 6.6 6.5 6.9 6.7 6.7 6.5 6.5 7.0 6.5 6.5 6.5 6.9 6.9 7.0 7.6 6.7 7.0 7.5 7.4 7.1
5.2 5.6 5.9 5.7 5.5 6.1 7.8 8.0 7.6 7.5 7.7 7.6 7.3 7.1 7.5 5.7 5.3 5.0 5.7 5.4 3.9 4.4 3.6 6.5 6.2 6.4 5.7 5.2 5.1 4.6 4.4 4.2 5.0 7.1 6.9 7.2 6.9 6.9 6.5 6.5 6.7 7.2 6.8 7.3 6.8 6.3 7.0 6.8 6.5 6.8 7.0 7.1 7.0 7.0
5.4 5.6 5.8 5.7 5.7 6.7 7.6 7.6 7.6 7.2 7.6 7.5 7.1 7.1 7.2 6.3 4.4 4.7 5.4 4.7 3.8 3.4 3.4 6.7 6.7 6.8 5.8 5.5 5.1 5.7 4.7 4.7 5.9 6.9 7.0 7.0 7.1 7.2 6.5 6.5 6.7 7.2 7.0 5.9 6.2 5.9 6.7 6.6 7.5 7.3 6.3 6.7 6.9 7.0
5.2 5.5 5.7 6.4 7.3 7.6 7.4 7.6 7.7 7.1 7.6 7.3 7.2 7.5 6.8 6.0 4.3 5.0 3.5 2.8 3.2 3.6 3.5 6.5 6.5 7.0 6.3 7.0 7.0 5.2 6.5 6.1 6.5 7.2 7.2 6.8 7.1 7.0 6.5 6.7 7.0 7.0 6.8 6.9 6.6 6.5 7.2 7.2 6.8 6.8 6.7 7.4 6.7 6.7
5.3 5.6 5.9 7.6 7.6 7.7 7.5 7.7 7.6 7.1 7.5 7.2 7.3 7.5 6.3 6.0 6.0 5.6 5.2 3.8 3.0 4.6 6.1 6.7 6.5 6.5 6.6 7.1 7.0 7.0 6.3 6.5 6.9 6.5 6.7 6.9 6.5 6.5 6.5 6.8 7.0 6.8 6.5 6.6 6.6 7.0 7.7 7.5 7.7 7.0 7.7 7.5 6.8 6.8
5.3 5.5 6.6 7.0 7.3 7.6 7.5 7.5 7.5 7.3 7.4 7.3 7.7 5.8 5.4 5.5 6.5 6.3 6.7 6.2 5.3 3.8 3.8 6.6 7.0 6.5 7.2 7.2 6.9 6.9 7.2 6.5 6.5 6.6 7.3 6.5 6.5 7.0 6.7 5.8 5.9 5.6 5.8 6.0 7.2 7.2 7.2 7.4 7.7 7.8 7.2 7.5 6.6 6.1
5.5 6.2 6.7 7.5 7.5 7.5 7.4 7.5 7.6 7.5 7.4 6.9 6.0 5.2 4.8 6.2 5.8 4.9 6.3 6.6 6.2 6.5 6.8 7.1 6.8 6.6 6.2 6.5 6.5 7.2 6.5 6.5 6.5 6.5 6.5 6.5 6.5 6.6 6.0 5.3 4.9 5.6 5.8 6.3 6.9 7.2 7.8 8.1 8.0 7.9 7.4 6.6 6.1 5.9
6.4 6.4 6.7 7.3 7.4 7.4 7.2 7.4 7.6 7.5 7.0 5.3 4.9 5.0 5.4 5.6 5.6 6.4 6.5 6.6 6.5 6.5 6.5 6.6 6.5 6.6 6.1 6.0 6.7 6.9 6.5 6.5 6.5 6.9 6.5 6.5 6.5 5.3 4.9 5.3 4.7 5.6 5.8 6.0 6.6 7.1 7.0 7.3 7.2 7.0 6.5 6.1 5.5 5.3
6.7 6.6 6.8 7.0 7.5 7.5 7.3 7.6 7.3 7.7 6.6 6.3 5.7 5.0 6.1 6.2 6.5 6.5 6.5 6.5 6.5 6.7 6.8 6.5 6.5 6.5 5.6 6.2 6.8 6.5 6.5 6.5 6.9 6.5 6.5 6.5 6.8 5.1 4.3 4.8 4.8 5.5 5.7 6.0 6.3 7.7 7.7 7.4 6.7 6.0 6.1 5.8 5.3 4.9
6.8 6.8 6.9 7.0 6.8 7.2 7.4 7.7 7.3 7.3 7.8 5.0 6.5 6.5 6.5 6.5 6.5 6.5 6.5 6.5 6.4 6.7 6.6 6.4 6.8 6.7 7.1 6.6 6.5 6.5 6.5 6.5 6.5 6.5 6.5 6.5 6.8 5.2 4.6 5.1 4.8 5.1 5.8 6.2 7.8 7.2 7.1 7.1 6.6 5.9 6.0 5.6 5.4 4.9
7.1 6.7 7.1 6.7 7.0 7.1 7.4 7.2 7.3 7.5 5.2 6.0 6.2 6.5 6.5 6.7 6.6 5.7 4.6 6.3 5.6 6.9 6.6 5.8 6.5 6.9 6.5 6.5 6.5 6.5 6.5 6.5 6.5 6.5 6.5 6.7 5.1 4.2 4.6 5.3 3.9 5.0 5.7 6.2 7.1 6.6 6.4 5.9 5.2 5.2 4.5 4.2 4.2 4.0
7.1 6.9 6.4 7.2 7.2 7.2 7.3 7.3 6.1 4.9 2.5 5.0 6.1 6.5 6.8 6.5 6.5 6.7 6.5 6.6 7.0 7.1 4.4 4.4 6.5 6.5 6.5 6.5 6.5 6.5 6.5 6.5 6.5 6.5 6.0 4.6 4.6 4.6 4.5 4.0 4.0 5.2 6.0 6.1 6.3 5.8 5.7 5.4 5.0 4.8 4.1 4.4 4.5 4.5
7.1 5.8 7.0 7.1 7.4 7.3 7.5 5.2 5.0 4.4 5.5 6.5 6.5 7.1 6.2 6.3 6.6 6.6 7.0 7.0 7.5 6.4 6.5 6.5 6.5 6.5 6.5 6.5 6.5 6.5 6.5 6.5 6.5 4.8 3.3 4.1 3.9 3.8 4.3 4.8 4.5 5.4 5.7 6.5 7.0 6.2 5.6 5.0 4.5 4.8 5.2 6.1 6.0 5.4
5.8 6.7 7.3 7.3 7.2 5.7 3.6 3.3 4.5 5.8 6.5 6.3 6.5 6.8 7.0 6.5 6.7 6.8 6.0 7.4 6.5 5.1 5.7 6.4 6.7 6.5 6.5 6.5 6.5 6.5 6.5 3.7 2.6 3.6 3.1 3.2 3.5 3.6 3.1 2.9 3.6 4.2 4.5 6.6 6.6 6.3 5.8 5.6 5.7 6.1 3.8 3.1 3.3 3.3
6.5 6.9 6.9 6.8 6.4 4.4 4.2 4.0 4.4 6.5 6.6 6.4 6.5 6.6 6.8 6.6 5.3 5.2 6.9 6.4 2.6 2.8 2.9 5.6 6.5 6.5 6.5 6.5 6.5 5.4 4.4 4.9 5.1 4.0 3.1 2.7 2.7 2.3 2.6 3.1 3.4 3.6 4.4 5.7 6.0 5.3 5.0 4.5 4.0 3.7 3.7 2.9 3.2 3.0
6.8 7.0 7.1 7.1 5.3 3.0 5.5 5.4 4.2 6.1 6.5 6.5 6.1 6.5 6.5 6.5 6.0 6.2 6.8 4.9 3.8 3.6 5.9 6.5 6.5 6.3 6.0 4.4 2.8 2.6 3.3 3.2 2.8 4.4 3.9 2.8 2.5 1.5 1.8 2.5 3.2 4.4 5.2 4.5 3.5 3.5 2.8 2.2 1.6 1.8 2.1 2.3 2.2 3.0
6.7 5.5 4.6 3.5 2.1 3.3 5.0 5.8 6.2 6.0 6.1 6.7 5.8 6.6 6.5 6.5 6.8 6.8 5.8 4.0 4.4 5.0 6.5 4.6 4.7 2.9 0.7 0.7 1.6 2.1 1.7 2.6 3.9 3.7 3.4 2.7 1.9 2.2 1.3 2.3 2.9 2.8 2.6 2.4 2.2 2.3 2.5 2.3 2.8 2.0 1.6 2.3 2.2 2.1
5.7 5.4 3.7 3.2 4.0 5.0 5.3 4.9 5.8 5.7 5.8 6.4 6.1 6.2 6.6 6.5 6.6 6.5 4.7 5.6 5.6 4.1 3.3 3.4 2.6 1.8 1.5 1.5 1.0 0.8 1.1 1.3 1.1 2.1 1.9 1.4 1.3 1.4 1.2 0.8 1.3 1.6 1.7 1.8 2.6 3.5 3.2 2.3 1.4 1.3 1.6 2.0 1.5 1.5
5.8 4.5 3.0 3.4 5.4 6.1 6.3 4.8 5.6 6.1 6.5 6.6 6.5 6.5 6.5 6.5 5.9 3.7 6.6 6.0 5.2 2.6 0.7 0.9 -0.4 -0.8 0.2 -0.7 0.2 0.5 0.8 1.4 1.2 1.1 1.3 1.0 0.8 0.6 1.5 1.1 1.5 1.9 1.5 2.1 1.8 2.3 2.1 1.6 2.4 1.6 1.1 1.2 1.0 1.4
4.8 3.5 5.4 6.1 6.2 6.5 6.3 5.8 6.3 6.5 6.7 6.5 6.5 6.5 6.5 6.5 5.1 6.5 6.5 6.5 4.3 0.8 0.5 -0.6 0.2 0.2 0.9 1.7 1.6 0.5 -0.6 0.2 -1.0 -1.2 -0.5 0.8 0.5 0.2 0.7 0.7 0.8 0.6 1.0 1.2 2.1 2.6 2.2 1.8 1.8 1.1 0.4 0.7 0.8 0.9
5.8 5.9 5.9 6.5 5.7 6.4 6.5 6.5 6.5 6.5 6.5 6.5 6.5 6.5 6.5 6.2 6.5 6.5 6.5 6.3 3.6 2.2 0.9 -0.1 2.1 2.6 2.6 1.1 -0.0 -0.7 -3.2 0.1 1.5 0.5 -2.1 -0.9 -1.2 -1.2 -1.0 -0.8 -0.9 -1.5 -1.6 0.6 1.1 1.3 0.6 -0.2 -0.1 0.3 0.3 0.6 0.7 0.6
6.5 6.2 6.5 6.5 6.5 6.5 6.5 6.5 6.5 6.5 6.5 6.5 6.5 6.7 6.4 6.5 6.5 6.5 6.5 5.2 3.3 2.6 1.0 1.8 2.3 1.8 1.2 0.3 0.3 -0.5 -0.6 -2.4 0.2 0.9 -1.9 -1.5 0.6 2.0 0.8 1.0 0.8 -0.3 -2.9 -1.5 0.0 0.3 -0.1 -0.6 -0.3 -0.9 0.5 0.2 0.9 -0.2
6.5 6.5 5.9 5.7 5.2 5.6 6.3 6.5 6.4 6.5 6.5 6.5 6.5 6.5 6.5 6.5 6.5 6.5 3.4 1.9 2.5 0.7 1.4 1.7 1.1 2.1 0.9 -2.0 -3.2 -3.9 -4.2 -3.7 -1.3 -1.5 -4.1 -4.7 -4.8 -3.8 -0.4 0.8 0.1 -0.9 -3.2 -2.2 -1.0 0.1 0.2 -0.1 -0.1 -0.4 -0.3 -0.0 0.5 0.4
6.0 5.4 6.5 6.0 5.5 4.2 6.5 6.5 6.5 6.5 6.5 6.6 6.6 6.5 6.5 6.5 6.5 4.0 2.0 -0.3 -1.2 -1.2 -1.8 -2.4 -1.6 -0.5 -1.4 -3.2 -4.6 -5.4 -5.6 -5.2 -4.9 -4.6 -3.9 -4.2 -6.2 -6.4 -5.2 -3.4 -2.9 -2.0 -3.5 -3.1 -2.4 -2.0 -1.1 -0.7 -0.5 -0.2 0.0 0.3 0.4 0.0
5.3 5.4 5.2 6.5 6.5 6.5 6.5 6.5 6.5 6.2 5.5 6.4 6.5 6.5 6.5 4.1 1.2 1.0 -0.1 -1.3 -1.2 0.8 0.0 -1.3 -2.9 -3.5 -4.4 -4.9 -4.7 -3.9 -3.7 -2.1 0.1 1.1 0.5 -0.6 -1.5 -2.5 -6.7 -5.6 -5.3 -5.3 -4.2 -2.5 0.3 -1.1 -1.7 -0.8 0.1 0.4 -1.0 -1.0 -1.2 -1.9
6.4 6.1 6.5 6.5 6.5 6.5 6.5 5.2 5.9 4.5 4.4 3.8 4.1 4.4 4.7 3.4 0.5 -1.5 -0.7 -0.2 1.3 1.5 0.2 -1.0 -2.2 -0.7 -1.9 -2.2 -3.2 -3.2 -5.0 -5.4 -3.8 0.8 0.9 0.0 -0.5 -3.9 -6.0 -5.5 -5.0 -5.5 -5.2 -3.2 -2.0 -1.7 1.8 -1.0 -0.6 -2.4 -2.0 -1.6 -1.3 -0.3
5.6 5.8 6.5 6.6 6.5 6.3 5.4 4.3 4.2 4.1 3.7 4.1 3.9 5.3 5.2 3.3 1.6 -0.1 -0.1 -0.4 -0.2 -0.2 -0.3 -0.6 -0.9 -0.6 -1.3 -1.3 -0.9 -0.9 -0.6 -4.5 -6.7 -6.8 -5.2 -4.5 -5.1 -5.3 -5.4 -5.1 -5.0 -5.3 -4.3 -2.9 -2.0 -1.4 -1.7 -2.0 -2.3 -2.3 -2.2 -2.5 -2.7 -1.8
6.1 6.5 6.5 6.5 6.5 5.1 3.9 5.1 5.3 5.6 5.1 5.5 5.2 3.7 3.4 4.2 5.2 2.1 -1.2 -0.8 0.0 0.5 1.3 0.0 -0.1 -1.1 -2.4 -3.0 -3.0 -2.2 -0.1 -4.8 -5.3 -4.4 -4.7 -4.7 -4.4 -4.8 -5.1 -5.5 -6.0 -4.5 -3.3 -2.7 -2.4 -2.6 -3.7 -3.1 -2.6 -2.4 -1.7 -2.5 -2.8 -2.6
6.0 6.1 6.3 6.4 6.5 6.5 5.4 5.9 6.2 6.5 6.2 6.5 5.8 3.7 3.6 4.1 6.0 1.8 -3.2 -3.6 -1.0 0.3 -0.2 -1.8 -3.3 -4.0 -4.2 -4.0 -3.8 -3.1 -3.3 -5.1 -4.4 -1.4 -0.5 -0.8 -1.5 -3.4 -5.2 -4.9 -4.1 -3.2 -2.8 -2.5 -2.9 -3.4 -3.6 -4.1 -2.9 -3.4 -3.7 -4.1 -3.0 -2.6
Wind_Speed
24 23 21 20 18 17 20 19 16 15 14 15 13 14 12 16 20 10 5 8 3 2 2 1 2 1 1 2 3 5 4 2 3 4 2 2 3 3 3 2 4 5 6 3 3 3 2 5 4 4 3 2 1 2
24 24 21 20 20 19 18 22 18 17 13 14 14 13 9 7 6 4 4 4 3 4 3 1 2 2 2 2 3 3 2 3 4 3 2 2 3 2 2 2 4 4 3 2 5 1 2 3 1 1 2 1 1 3
25 24 22 21 21 20 19 21 19 17 14 13 13 11 7 4 7 3 4 5 3 3 2 1 1 0 1 1 1 2 2 2 3 1 2 1 4 3 3 5 4 5 5 3 2 4 9 6 4 4 3 2 2 5
26 23 21 22 22 22 21 21 21 18 16 14 14 13 9 4 4 6 3 4 4 3 2 2 1 1 5 2 3 1 2 4 4 1 2 2 2 3 2 2 3 0 8 6 5 6 2 7 7 5 3 4 5 7
24 22 23 23 24 23 22 21 21 19 17 15 14 13 12 7 6 8 1 4 2 1 2 3 0 2 5 5 5 5 7 4 2 2 2 2 2 3 1 2 5 8 7 6 3 6 1 3 6 1 3 4 6 6
23 23 24 25 26 26 24 22 22 18 18 16 15 12 8 5 23 5 1 3 7 4 4 3 1 0 3 4 7 7 4 3 1 1 1 1 0 2 3 3 4 12 7 3 2 6 3 4 1 2 3 5 7 8
24 25 26 27 27 27 26 24 22 20 19 18 16 13 9 4 5 2 4 2 18 4 3 4 3 1 0 2 2 2 3 2 1 1 2 1 2 2 3 4 3 10 9 6 7 7 2 4 2 1 5 7 9 8
26 26 28 29 29 29 26 24 23 22 20 20 17 13 14 3 7 0 1 13 7 4 1 4 2 2 3 2 2 2 1 0 1 0 1 2 2 2 5 10 3 8 9 8 8 5 3 4 1 1 4 5 5 4
25 28 29 30 28 28 27 26 26 25 23 22 19 14 4 2 3 2 7 5 1 2 4 3 6 4 4 2 2 2 1 2 1 2 2 3 3 7 8 8 13 13 12 11 9 7 5 5 3 2 2 3 4 4
25 27 28 29 29 30 29 29 29 27 26 25 12 4 3 3 19 16 1 3 1 1 2 2 3 4 4 3 2 3 0 1 2 1 3 4 5 14 8 6 9 14 10 13 12 7 8 7 6 4 2 3 3 3
24 26 28 29 29 30 30 30 31 31 28 7 4 3 1 20 3 2 4 5 3 4 5 4 4 6 4 3 3 2 2 1 2 2 3 3 5 4 7 11 8 13 12 11 5 4 10 7 7 5 4 3 3 3
25 27 28 28 28 29 31 32 35 20 6 9 8 6 2 3 3 6 6 5 7 8 6 8 6 4 4 3 3 3 2 2 4 4 3 4 4 3 6 11 10 14 11 9 7 7 6 5 5 5 4 3 3 3
24 24 25 26 28 32 34 34 38 26 25 6 4 6 5 5 7 11 11 6 6 7 7 6 6 5 3 2 4 3 5 4 3 3 5 6 1 4 7 9 11 10 9 9 8 7 5 5 4 3 3 3 3 2
18 19 19 19 21 31 36 38 38 27 12 4 6 7 7 7 7 6 5 6 3 6 12 10 6 4 3 3 3 4 2 4 3 5 7 3 8 9 10 10 12 12 11 11 9 7 5 6 4 3 3 2 2 2
11 11 11 12 22 32 37 41 36 13 3 4 5 7 8 2 3 1 2 6 4 14 13 7 5 4 3 4 3 4 5 6 7 6 3 3 10 12 13 13 10 10 10 9 9 7 7 5 4 3 2 1 2 3
12 10 2 22 29 35 40 34 7 3 3 1 4 3 3 4 3 3 3 6 9 12 7 4 5 5 4 5 6 10 7 7 4 4 3 7 12 12 11 10 9 9 9 7 7 7 6 5 4 3 2 2 2 2
10 1 21 29 35 37 32 5 3 3 4 4 3 3 3 2 4 3 7 6 12 12 6 4 6 6 6 4 4 6 6 3 2 3 3 9 14 13 11 9 8 9 7 6 5 6 5 4 3 3 4 2 2 3
2 10 28 34 28 13 3 3 3 2 1 1 3 4 3 2 5 5 3 10 9 3 4 4 6 5 6 8 4 5 5 2 1 3 5 8 11 12 10 10 8 7 6 6 7 4 4 5 5 4 2 3 4 4
12 15 28 29 10 4 3 3 2 5 5 2 2 2 4 3 2 3 6 8 3 3 6 2 4 4 4 4 3 3 4 4 4 4 4 7 10 12 9 9 8 6 6 6 7 5 4 4 4 3 3 1 2 2
24 31 27 17 8 3 3 3 2 3 4 2 1 3 4 3 1 4 7 2 3 3 2 3 3 2 3 1 2 3 6 6 8 7 5 4 6 8 10 9 8 9 7 5 4 6 3 4 4 4 3 3 2 3
20 10 11 4 3 4 3 2 1 1 3 3 1 1 3 2 3 4 4 0 1 2 2 3 1 2 2 1 1 4 7 8 6 4 7 6 5 5 6 5 7 6 6 5 5 5 7 5 2 2 2 2 2 2
4 12 3 3 3 3 2 1 3 2 3 2 2 2 3 3 3 3 1 0 2 2 2 2 3 3 3 3 2 2 6 6 5 8 11 13 6 5 5 6 5 6 6 5 4 4 2 2 2 2 2 1 1 2
12 4 3 2 3 3 1 2 3 3 3 1 0 3 2 2 1 0 3 2 2 1 2 2 3 3 5 3 5 5 4 7 5 5 6 5 6 4 4 6 5 5 4 4 2 2 2 3 3 3 1 1 1 2
7 3 2 3 3 3 3 2 2 3 3 2 2 3 2 2 2 1 3 3 2 4 4 5 7 6 4 4 3 2 2 4 6 4 3 7 6 4 3 4 3 2 2 3 3 3 2 2 3 2 2 1 2 3
4 1 3 4 2 4 4 3 2 3 2 2 3 2 2 2 2 2 2 2 4 5 5 7 5 6 5 3 3 2 1 2 5 6 1 1 6 5 4 4 3 1 0 3 2 3 3 2 2 2 1 2 3 4
4 1 3 4 3 4 5 5 4 4 3 3 2 2 1 2 3 5 3 3 3 5 7 10 8 5 4 2 6 4 4 2 3 4 2 3 3 5 5 5 3 1 1 1 3 4 4 2 2 2 2 3 6 4
4 3 1 1 3 4 4 3 4 3 4 5 5 5 3 4 6 3 1 1 1 1 3 5 6 7 8 5 4 4 4 3 3 5 6 4 3 2 2 3 4 3 3 3 3 3 3 3 2 1 2 2 2 3
2 2 6 3 3 1 5 3 4 4 3 3 6 5 6 5 2 1 0 1 1 1 5 5 5 6 6 6 7 7 7 7 8 8 7 7 6 5 5 5 6 12 5 4 4 3 3 3 2 0 1 3 4 4
2 1 4 3 3 3 2 2 3 1 1 5 3 3 3 1 1 1 1 0 1 4 6 7 6 7 8 7 6 5 7 7 10 8 5 4 2 1 1 3 4 3 3 2 5 4 4 2 2 1 2 2 3 3
3 1 3 3 2 2 1 1 1 1 1 2 2 2 2 1 1 1 1 1 2 4 4 6 8 8 9 9 8 5 1 1 1 3 6 4 4 5 4 4 4 3 2 2 2 1 4 4 4 3 3 3 3 3
2 2 4 3 2 1 1 0 1 1 2 2 2 2 2 2 1 1 1 1 3 5 7 7 6 6 9 9 9 8 4 1 1 2 3 6 7 6 5 4 3 3 3 3 3 3 2 2 2 3 4 4 5 5
2 2 3 3 2 1 1 1 1 2 1 1 2 1 1 1 2 1 2 2 4 5 7 6 8 5 3 5 4 3 7 7 5 5 8 6 5 5 5 4 4 3 4 4 3 3 3 4 3 3 3 4 4 4
3 2 3 4 3 3 3 2 2 2 2 2 1 1 1 0 3 2 1 1 1 3 5 4 5 5 6 6 5 7 11 7 11 14 15 14 13 10 5 4 4 4 5 4 4 3 4 4 2 3 2 3 3 5
Wind_Direction
258 243 235 243 251 262 272 278 282 283 287 286 291 299 310 351 126 132 118 151 209 136 77 348 335 210 134 174 162 139 143 174 163 215 226 190 224 189 216 181 195 196 173 188 166 223 261 163 152 234 43 163 146 267
251 237 238 242 251 258 259 273 277 279 276 275 283 296 320 24 203 103 110 138 129 82 86 69 78 53 299 324 124 172 350 159 161 161 203 141 193 192 238 248 199 229 235 224 221 231 116 162 257 166 174 262 47 319
239 228 238 242 253 256 255 264 268 270 269 260 268 279 282 14 225 34 124 159 108 102 118 219 193 319 281 319 329 187 207 154 170 43 143 119 240 183 208 229 207 223 199 247 274 185 231 239 229 203 176 169 330 305
221 225 234 245 252 252 252 257 261 258 255 250 254 262 256 195 315 183 158 164 90 125 146 135 359 332 326 321 179 262 126 99 102 165 155 189 247 202 248 335 248 139 164 215 250 246 230 243 233 198 195 309 297 300
219 225 233 245 248 249 251 251 254 255 247 241 239 253 256 235 241 141 108 191 134 180 143 138 63 13 16 56 96 126 128 123 148 160 187 213 141 188 206 266 236 191 184 193 229 155 134 127 163 166 276 274 305 307
220 227 235 240 244 247 249 251 249 242 237 230 228 232 240 292 166 113 316 200 179 134 117 155 34 107 36 64 73 71 68 75 86 186 180 191 212 237 227 241 241 192 200 209 149 144 105 122 145 155 278 293 297 292
228 232 236 238 241 244 242 240 236 236 230 218 217 216 182 220 180 171 188 172 153 124 127 126 172 171 358 63 59 62 50 68 38 128 214 206 196 224 249 237 206 192 185 161 138 133 146 184 154 209 270 281 285 281
230 234 236 238 240 241 238 233 225 227 216 208 202 207 166 72 90 313 357 129 127 111 98 139 108 183 181 148 138 7 87 36 48 117 183 212 155 228 252 233 194 173 163 170 173 195 121 130 179 273 274 294 306 339
237 241 242 242 240 237 233 228 219 216 204 195 183 172 121 248 152 176 143 135 91 227 179 150 156 188 160 105 95 115 38 230 90 238 220 186 193 228 233 206 187 177 178 182 172 179 183 196 188 246 264 314 327 349
243 246 248 244 239 234 230 223 212 200 190 178 159 146 188 216 132 133 78 165 238 262 143 144 122 136 163 146 125 142 258 232 247 198 143 227 254 251 238 217 192 178 174 154 155 188 194 198 199 199 245 291 302 325
251 250 247 244 236 231 224 214 203 183 174 176 161 150 226 163 96 99 159 168 188 222 179 143 164 138 207 142 148 203 157 123 255 166 224 247 262 231 192 182 178 171 167 174 178 150 181 193 188 202 242 274 281 297
256 256 252 245 236 223 215 203 189 172 169 129 114 94 156 201 159 164 183 171 195 202 162 149 154 128 146 156 119 166 149 149 246 143 233 253 246 203 171 168 162 171 172 173 176 171 179 193 185 195 232 258 284 323
261 256 254 247 233 216 204 190 176 150 130 121 122 168 189 192 179 181 184 194 187 161 164 160 125 128 126 109 95 150 175 217 129 218 238 237 181 161 161 152 148 154 161 162 170 183 191 163 177 201 215 220 253 277
256 254 249 244 233 200 182 174 156 149 146 135 166 198 212 181 213 192 172 142 160 141 146 140 111 124 133 127 137 156 169 157 230 237 235 223 189 161 162 159 151 164 165 165 179 170 173 190 199 193 203 207 238 264
232 232 204 175 160 156 155 153 152 157 104 162 185 205 208 155 75 80 108 118 146 149 139 112 81 101 114 115 183 127 168 235 223 233 227 182 158 153 158 165 157 163 166 167 171 179 191 179 201 185 157 288 281 274
170 150 176 161 151 146 145 145 145 102 70 117 227 170 156 108 135 166 163 129 147 152 118 87 130 134 166 150 158 205 172 221 233 215 184 150 155 156 157 157 160 160 160 156 155 166 172 180 191 195 212 247 249 255
100 342 152 146 144 143 141 109 78 93 174 220 210 221 172 80 142 158 159 162 159 156 150 141 133 173 119 162 208 186 208 223 205 181 166 170 160 159 156 152 159 158 156 154 147 153 166 175 179 220 249 250 304 305
102 150 147 145 139 120 56 44 87 90 313 207 226 165 127 101 135 141 144 159 161 150 153 156 126 159 181 175 212 208 199 154 171 154 164 157 151 149 158 160 153 151 155 154 176 166 164 177 213 240 277 281 292 290
150 157 142 143 124 87 88 120 109 143 204 203 203 98 86 92 34 119 143 151 73 101 116 103 131 177 203 215 200 158 153 158 158 151 133 145 153 150 142 150 157 154 160 171 177 187 193 215 242 256 259 259 276 306
127 135 137 125 80 74 97 87 84 209 189 138 93 88 87 88 88 116 136 114 119 134 138 169 204 193 183 202 186 153 146 137 139 125 123 142 155 141 149 155 161 166 171 159 182 193 209 237 243 234 224 213 230 274
123 118 84 79 74 52 81 161 169 104 97 91 90 66 81 81 90 152 153 214 108 186 196 205 176 120 92 85 148 127 143 156 156 144 153 153 166 149 144 148 158 163 171 182 196 218 223 230 222 176 187 215 234 272
100 91 95 81 105 118 124 330 119 141 79 79 87 73 108 102 124 173 173 86 235 205 195 157 153 146 119 108 102 105 132 110 94 108 100 121 137 149 168 171 161 181 191 197 201 214 226 222 180 183 190 213 316 311
96 69 75 82 89 69 77 351 63 32 104 127 108 84 72 127 121 177 165 231 242 162 130 116 113 78 102 85 88 76 84 114 109 110 127 117 124 115 135 161 181 179 188 207 202 210 201 170 180 153 132 65 348 329
74 68 102 109 93 118 127 68 101 110 110 95 86 105 163 136 151 202 222 211 200 138 144 147 135 107 89 96 112 117 92 98 104 84 93 126 121 112 127 137 145 117 79 114 147 151 147 148 144 116 73 8 354 330
104 356 95 90 96 113 109 146 118 78 113 128 125 152 181 170 160 198 241 235 168 182 154 153 162 147 140 112 116 127 182 148 139 132 136 101 115 114 95 84 86 85 174 147 142 133 127 130 110 94 53 12 341 336
101 174 178 162 138 139 161 130 139 142 131 122 149 121 152 145 158 228 218 185 173 169 175 173 158 137 126 125 149 161 167 165 121 112 137 175 165 149 148 150 156 140 71 97 125 134 138 128 103 53 33 15 347 346
141 190 124 67 112 113 94 62 89 134 157 169 171 165 158 194 222 222 125 49 107 189 167 154 148 154 148 137 105 93 92 75 67 106 108 95 67 39 120 147 164 133 126 111 106 115 133 126 106 63 352 329 329 322
131 146 139 175 98 38 118 120 131 165 165 154 138 187 191 204 219 101 17 35 305 149 91 75 62 99 113 114 116 117 98 105 102 106 107 79 58 50 53 79 96 113 102 102 107 109 114 127 129 226 315 319 322 335
102 178 120 75 81 65 68 121 154 128 76 185 162 170 160 51 360 320 12 95 161 150 118 110 90 98 93 88 80 98 131 150 144 135 117 128 146 147 89 95 96 99 102 105 134 143 190 181 199 94 55 345 333 319
136 254 99 77 90 96 62 332 98 94 16 57 90 114 111 90 24 297 126 150 145 119 108 121 134 135 136 133 132 118 59 357 339 120 145 167 192 139 151 143 133 125 126 131 128 103 98 59 57 47 33 19 5 1
100 85 76 60 76 53 90 270 98 70 56 55 354 73 87 120 116 41 84 92 112 118 126 131 119 135 134 142 147 143 142 126 132 158 129 109 121 133 139 138 131 139 145 136 129 115 96 74 60 52 43 29 4 15
48 79 124 113 117 171 305 55 75 79 69 66 47 70 107 127 97 147 166 130 127 137 157 142 143 143 108 96 90 79 111 131 142 128 120 121 122 125 130 136 143 145 137 126 118 105 100 103 95 68 52 29 2 4
116 102 100 111 119 188 194 147 91 102 56 79 62 1 30 38 144 145 146 9 110 137 134 108 98 100 95 92 104 116 119 119 134 132 129 134 142 148 145 142 142 143 137 132 120 111 109 111 100 85 56 359 355 15